Flag for Montenegro Weather past 2 weeks in Podgorica, Montenegro

Now
54 °F

Scattered clouds.


Feels Like: 52 °F
Forecast: 35 / 49 °F
Wind: 6 mph from South

Location: Podgorica Titograd

Current Time: Feb 1, 2015 at 12:46:57 PM

Latest Report: Feb 1, 2015 at 12:00 PM


Visibility: N/A

Pressure: 29.24 "Hg

Humidity: 67%

Dew point: 43 °F

Location of PodgoricaLocation

Historic Weather in Podgorica — Graph

°F

Podgorica temperature yesterday

Maximum temperature yesterday: 55 °F (at 10:00 AM)
Minimum temperature yesterday: 41 °F (at 5:30 AM)
Average temperature yesterday: 47 °F

Past Weeks' High & Low Weather Summary

 TemperatureHumidityPressure
High57 °F (Jan 22, 1:00 PM)100% (Jan 17, 7:30 PM)30.24 "Hg (Jan 17, 7:30 PM)
Low30 °F (Jan 29, 7:00 AM)35% (Jan 26, 12:00 PM)28.94 "Hg (Jan 30, 7:00 PM)
Average47 °F80%29.77 "Hg
* Reported Jan 17 12:00 Noon — Feb 1 12:00 Noon, Podgorica, Weather by CustomWeather, © 2014

Note: Actual official high and low records may vary slightly from our data, if they occured in-between our weather recording intervals... More about our weather records

Advertising

Podgorica weather history for previous 24 hours

 ConditionsComfort  
Time TempWeatherWind HumidityBarometerVisibility
12:00 PM
Feb 1
54 °FScattered clouds.6 mph67%29.24 "HgN/A
11:30 AM52 °FScattered clouds.7 mph72%29.24 "HgN/A
11:00 AM50 °FBroken clouds.6 mph82%29.24 "HgN/A
10:30 AM50 °FBroken clouds.2 mph76%29.21 "HgN/A
10:00 AM46 °FBroken clouds.3 mph87%29.18 "HgN/A
9:30 AM45 °FScattered clouds.7 mph93%29.18 "HgN/A
9:00 AM45 °FScattered clouds.7 mph93%29.15 "HgN/A
8:30 AM43 °FScattered clouds.6 mph100%29.12 "HgN/A
8:00 AM41 °FLight rain. Mostly cloudy.7 mph100%29.09 "HgN/A
7:30 AM41 °FLight rain. Broken clouds.8 mph100%29.06 "Hg4 mi
7:00 AM41 °FHeavy rain. Broken clouds.6 mph100%29.06 "Hg2 mi
6:30 AM43 °FThunderstorms. Passing clouds.14 mph100%29.03 "Hg5 mi
6:00 AM43 °FRain. Fog.6 mph100%29.03 "Hg2 mi
5:30 AM43 °FLight rain. Fog.3 mph100%29.03 "Hg3 mi
5:00 AM43 °FLight rain. Fog.3 mph100%29.06 "Hg2 mi
4:30 AM43 °FLight rain. Fog.3 mph100%29.06 "Hg1 mi
4:00 AM43 °FLight rain. Fog.2 mph100%29.09 "Hg1 mi
3:30 AM43 °FLight rain. Fog.3 mph100%29.09 "Hg2 mi
3:00 AM43 °FLight rain. Fog.3 mph100%29.12 "Hg3 mi
2:30 AM43 °FLight rain. Mostly cloudy.2 mph100%29.12 "Hg5 mi
2:00 AM43 °FLight rain. Mostly cloudy.1 mph100%29.12 "HgN/A
1:30 AM43 °FLight rain. Mostly cloudy.3 mph100%29.15 "HgN/A
1:00 AM43 °FMostly cloudy.2 mph100%29.15 "HgN/A
12:30 AM43 °FLight rain. Mostly cloudy.2 mph100%29.15 "HgN/A
12:00 AM43 °FLight rain. Mostly cloudy.2 mph100%29.18 "HgN/A
11:30 PM
Jan 31
43 °FMostly cloudy.No wind100%29.18 "HgN/A
11:00 PM43 °FLight rain. Mostly cloudy.2 mph100%29.21 "HgN/A
10:30 PM43 °FMostly cloudy.3 mph93%29.18 "HgN/A
9:30 PM45 °FMostly cloudy.3 mph93%29.21 "HgN/A
9:00 PM45 °FMostly cloudy.6 mph87%29.21 "HgN/A
8:30 PM43 °FMostly cloudy.6 mph93%29.21 "HgN/A
8:00 PM43 °FMostly cloudy.8 mph100%29.21 "HgN/A
7:30 PM43 °FMostly cloudy.9 mph100%29.24 "HgN/A
7:00 PM43 °FMostly cloudy.9 mph100%29.24 "HgN/A
6:30 PM45 °FLight rain. Mostly cloudy.12 mph93%29.24 "HgN/A
6:00 PM45 °FLight rain. Mostly cloudy.8 mph93%29.24 "HgN/A
5:30 PM45 °FLight rain. Mostly cloudy.8 mph100%29.24 "Hg4 mi
5:00 PM45 °FLight rain. Mostly cloudy.8 mph93%29.24 "Hg2 mi
4:30 PM45 °FRain. Broken clouds.7 mph100%29.24 "Hg2 mi
4:00 PM46 °FRain. Broken clouds.5 mph93%29.24 "Hg2 mi
3:30 PM48 °FRain. Broken clouds.5 mph87%29.24 "Hg4 mi
3:00 PM48 °FLight rain. Broken clouds.12 mph82%29.21 "Hg4 mi
2:30 PM48 °FLight rain. More clouds than sun.9 mph87%29.21 "HgN/A
2:00 PM48 °FLight rain. More clouds than sun.10 mph82%29.21 "HgN/A
1:30 PM50 °FLight rain. Broken clouds.2 mph76%29.24 "HgN/A
1:00 PM52 °FLight rain. Broken clouds.10 mph67%29.24 "HgN/A
12:30 PM54 °FBroken clouds.9 mph58%29.24 "HgN/A
12:00 PM54 °FBroken clouds.7 mph51%29.27 "HgN/A
Weather by CustomWeather, © 2014

See weather overviewHow to use our weather pages